STARLINK-30101, 56301

Orbit data source: Space-Track

STARLINK-30101, 56301 is a payload satellite owned by SpaceX/Seattle (US) in LEO that was launched on Wed, 19 Apr 2023 UTC via an FALCON 9 launch vehicle from the Air Force Eastern Test Range (AFETR). Payload-class satellites include a variety of spacecraft equipped with specific instruments for various scientific and technological missions. These include communications satellites like Starlink; space stations such as the ISS; scientific satellites like the Hubble; Earth observation satellites from companies like Planet Labs, Umbra, and HawkEye 360; GPS; miniature CubeSats for education and research; and military/defense satellites.

Loading next visibility...
Identifier
56301, 2023-056R
Orbit
LEO
Country
Flag of USUS
Related business
Manufacturer
SpaceX/Seattle
Mission
Operational Commercial Communications
Bus & Motor
STARLINK V2M, Unknown motor
Mass
730 kg wet, ~700 kg dry
Launch date (UTC)
2023-04-19 (3 years ago)
Launch vehicle
FALCON 9
Launch site
Air Force Eastern Test Range (AFETR)
Object type
Payload
Rocket body
Debris
Shape & HBR
Box + 2 Pan, 17.7 m
Radar Cross Section
33.884 m², Large (>1 m²)

Expand to show TLE details & history
Last TLE update: 1 day ago

TLE from 1 day ago
0 STARLINK-30101
1 56301U 23056R   25348.26388691 -.00000342  00000-0 -10285-4 0  9997
2 56301  43.0039 314.4489 0001071 270.8161  89.2559 15.02532392147230
Epoch: 2025-12-14T06:19Z
TLE epoch observation values (Epoch: 2025-12-14T06:19:59.829Z)
Latitude
0.00003°
Longitude
136.27034°
Altitude
558.859 km
Speed
7.584 km/s
True Right ascension
20h 57m 47s
True Declination
0° 00' 00"
Sunlit
Object was in daylight at epoch
Visualization orbit readout
Latitude
Unknown
Longitude
Unknown
Altitude
Unknown
Speed
Unknown
Apparent Right ascension
Unknown
Apparent Declination
Unknown
Sunlit
N/A
Visualization observer readout
Local Sidereal Time
13:19:49
Azimuth
Unknown
Elevation
Unknown
Doppler factor
Unknown
Orbital elements
Apogee altitude
561.757 km
Perigee altitude
560.271 km
Semi-major axis
6,939.151 km
Eccentricity
0.00011
Inclination
43.0039°
RAAN
314.4489°
Arg. of periapsis
270.8161°
True anomaly
89.26817°
Mean anomaly
89.2559°
Eccentric anomaly
89.26204°
Mean motion
3.75477 °/min
Orbital period
95.88 mins
BSTAR
-0.000010285
Loading maneuver chart data...
Computing Atmospheric mass density...
Loading historical data...
Loading historical data...
Loading historical data...
Loading historical data...
Loading historical data...
Loading historical data...
Loading historical data...

Documentation

Showing up to 5 results
|